Change the Weather History Date:

Sunday, September 30, 2012

  Actual Average Record
Temperature  
Mean Temperature 80 °F 80 °F  
Max Temperature 87 °F 88 °F 94 °F (1958)
Min Temperature 73 °F 72 °F 58 °F (1970)
Degree Days  
Heating Degree Days 0 0  
Month to date heating degree days 0 0  
Since 1 July heating degree days 0 0  
Cooling Degree Days 15 15  
Month to date cooling degree days 510 492  
Year to date cooling degree days 3264 2789  
Growing Degree Days 30 (Base 50)    
Moisture  
Dew Point 73 °F    
Average Humidity 81    
Maximum Humidity 94    
Minimum Humidity 61    
Precipitation  
Precipitation 0.00 in 0.14 in 0.75 in (1990)
Month to date precipitation 1.94 7.10  
Year to date precipitation 40.37 45.43  
Sea Level Pressure  
Sea Level Pressure 29.84 in    
Wind  
Wind Speed 5 mph (SSW)    
Max Wind Speed 13 mph    
Max Gust Speed 16 mph    
Visibility 10 miles    
Events      
T = Trace of Precipitation, MM = Missing Value Source: NWS Daily Summary

Daily Weather History Graph

Daily Weather History Graph

Search for Another Location

Airport or City:

Trip Planner

Search our weather history database for the weather conditions in past years. The results will help you decide how hot, cold, wet, or windy it might be!

Date:

Astronomy

Sep. 30, 2012 Rise Set
Actual Time 7:22 AM EDT 7:16 PM EDT
Civil Twilight 6:59 AM EDT 7:40 PM EDT
Nautical Twilight 6:32 AM EDT 8:07 PM EDT
Astronomical Twilight 6:05 AM EDT 8:34 PM EDT
Moon 7:29 PM EDT (9/30) 7:44 AM EDT (9/30)
Length of Visible Light 12h 40m
Length of Day
11h 54m
Full, 100% of the Moon is Illuminated
Sep 30
Full
Oct 8
Last Quarter
Oct 15
New
Oct 21
First Quarter
Oct 29
Full

Hourly Weather History & Observations

Time (EDT) Temp. Heat Index Dew Point Humidity Pressure Visibility Wind Dir Wind Speed Gust Speed Precip Events Conditions
12:53 AM 75.9 °F - 73.9 °F 94% 29.89 in 10.0 mi Calm Calm - N/A   Clear
1:53 AM 75.9 °F - 73.0 °F 91% 29.88 in 10.0 mi Calm Calm - N/A   Clear
2:53 AM 75.0 °F - 73.0 °F 94% 29.87 in 10.0 mi Calm Calm - N/A   Clear
3:01 AM 75.2 °F - 71.6 °F 89% 29.87 in 9.0 mi Calm Calm - N/A   Partly Cloudy
3:53 AM 73.9 °F - 72.0 °F 93% 29.85 in 10.0 mi Calm Calm - N/A   Clear
4:53 AM 73.9 °F - 71.1 °F 91% 29.84 in 10.0 mi Calm Calm - N/A   Clear
5:53 AM 73.0 °F - 71.1 °F 93% 29.84 in 10.0 mi ESE 3.5 mph - N/A   Clear
6:53 AM 73.0 °F - 71.1 °F 93% 29.85 in 10.0 mi East 3.5 mph - N/A   Clear
7:12 AM 73.4 °F - 71.6 °F 94% 29.85 in 10.0 mi East 3.5 mph - N/A   Partly Cloudy
7:53 AM 73.9 °F - 72.0 °F 93% 29.85 in 10.0 mi East 3.5 mph - N/A   Clear
8:53 AM 77.0 °F - 75.0 °F 94% 29.86 in 10.0 mi Calm Calm - N/A   Clear
9:53 AM 81.0 °F 86.7 °F 75.0 °F 82% 29.86 in 10.0 mi Calm Calm - N/A   Clear
10:53 AM 84.0 °F 90.2 °F 73.0 °F 69% 29.86 in 10.0 mi SW 3.5 mph - N/A   Clear
11:53 AM 86.0 °F 92.2 °F 72.0 °F 63% 29.86 in 10.0 mi SSW 6.9 mph - N/A   Clear
12:53 PM 86.0 °F 91.5 °F 71.1 °F 61% 29.86 in 10.0 mi SW 8.1 mph - N/A   Clear
1:53 PM 87.1 °F 96.3 °F 75.0 °F 67% 29.84 in 10.0 mi SW 9.2 mph - N/A   Clear
2:53 PM 87.1 °F 95.4 °F 73.9 °F 65% 29.82 in 10.0 mi SW 11.5 mph - N/A   Clear
3:53 PM 86.0 °F 93.8 °F 73.9 °F 67% 29.81 in 10.0 mi WSW 11.5 mph - N/A   Clear
4:53 PM 86.0 °F 95.1 °F 75.0 °F 70% 29.79 in 10.0 mi SW 9.2 mph - N/A   Clear
5:53 PM 84.9 °F 93.3 °F 75.0 °F 72% 29.78 in 10.0 mi WSW 8.1 mph - N/A   Partly Cloudy
6:53 PM 82.9 °F 89.4 °F 73.9 °F 74% 29.78 in 10.0 mi WSW 5.8 mph - N/A   Partly Cloudy
7:53 PM 82.9 °F 89.4 °F 73.9 °F 74% 29.80 in 10.0 mi West 6.9 mph - N/A   Scattered Clouds
8:53 PM 82.0 °F 87.9 °F 73.9 °F 76% 29.80 in 10.0 mi West 4.6 mph - N/A   Clear
9:53 PM 81.0 °F 86.2 °F 73.9 °F 79% 29.82 in 10.0 mi WSW 3.5 mph - N/A   Clear
10:53 PM 81.0 °F 86.2 °F 73.9 °F 79% 29.83 in 10.0 mi Calm Calm - N/A   Clear
11:53 PM 78.1 °F - 73.9 °F 87% 29.82 in 10.0 mi SE 3.5 mph - N/A   Clear